Location: Gairloch Mountain Observatory
(46.1383°N, 60.9640°W)
Time: 09:08:49
(UTC-03:00)

CENTAUR R/B - Visible Passes

Search period start: 28 March 2017 00:00
Search period end: 07 April 2017 00:00
Orbit: 836 x 1352 km, 63.5° (Epoch: 27 March)

Date Brightness Start Highest point End Pass type
(mag) Time Alt. Az. Time Alt. Az. Time Alt. Az.
28 Mar 3.7 02:22:47 38° ENE 02:22:47 38° ENE 02:27:05 10° NE visible
28 Mar 3.4 04:09:57 33° WNW 04:11:24 37° NNW 04:18:02 10° NNE visible
28 Mar 4.6 05:59:20 10° NW 06:04:20 20° N 06:09:46 10° NE visible
29 Mar 4.4 01:35:53 22° ENE 01:35:53 22° ENE 01:38:31 10° NE visible
29 Mar 3.0 03:23:02 52° NW 03:23:02 52° NW 03:29:44 10° NE visible
29 Mar 4.4 05:10:12 10° WNW 05:15:16 23° NNW 05:20:57 10° NE visible
30 Mar 4.9 00:48:57 12° ENE 00:48:57 12° ENE 00:49:33 10° ENE visible
30 Mar 3.2 02:36:06 52° NNE 02:36:06 52° NNE 02:41:27 10° NE visible
30 Mar 4.1 04:23:16 20° WNW 04:26:18 27° NNW 04:32:24 10° NNE visible
30 Mar 4.7 06:14:32 10° NW 06:19:38 20° N 06:25:08 10° NE visible
31 Mar 3.8 01:49:08 35° NE 01:49:08 35° NE 01:53:06 10° NE visible
31 Mar 3.6 03:36:18 33° NW 03:37:29 35° NNW 03:44:01 10° NNE visible
31 Mar 4.7 05:25:31 10° NW 05:30:31 20° N 05:35:55 10° NE visible
01 Apr 4.4 01:02:09 22° ENE 01:02:09 22° ENE 01:04:35 10° NE visible
01 Apr 3.3 02:49:18 47° NNW 02:49:18 47° NNW 02:55:43 10° NE visible
01 Apr 4.5 04:36:27 11° WNW 04:41:26 22° NNW 04:47:02 10° NE visible
02 Apr 4.9 00:15:07 12° ENE 00:15:07 12° ENE 00:15:45 10° ENE visible
02 Apr 3.4 02:02:16 48° NNE 02:02:16 48° NNE 02:07:26 10° NE visible
02 Apr 4.2 03:49:26 19° WNW 03:52:26 26° NNW 03:58:25 10° NNE visible
02 Apr 4.8 05:40:39 10° NW 05:45:49 20° N 05:51:22 10° NE visible
03 Apr 3.8 01:15:13 35° NE 01:15:13 35° NE 01:19:06 10° NE visible
03 Apr 3.8 03:02:22 31° NW 03:03:34 33° NNW 03:10:00 10° NNE visible
03 Apr 4.8 04:51:41 10° NW 04:56:41 20° N 05:02:05 10° NE visible
04 Apr 4.3 00:28:07 23° NE 00:28:07 23° NE 00:30:38 10° NE visible
04 Apr 3.5 02:15:16 43° NNW 02:15:16 43° NNW 02:21:41 10° NNE visible
04 Apr 4.7 04:02:30 10° WNW 04:07:35 21° N 04:13:07 10° NE visible
04 Apr 4.9 05:55:23 10° NW 06:01:04 23° NNE 06:07:11 10° ENE visible
04 Apr 4.7 23:40:58 13° ENE 23:40:58 13° ENE 23:41:54 10° NE visible
05 Apr 3.4 01:28:07 48° N 01:28:07 48° N 01:33:25 10° NE visible
05 Apr 4.4 03:15:15 18° WNW 03:18:34 25° NNW 03:24:27 10° NNE visible
05 Apr 4.9 05:06:45 10° NW 05:11:59 21° N 05:17:38 10° NE visible
06 Apr 3.7 00:40:55 38° NE 00:40:55 38° NE 00:45:05 10° NE visible
06 Apr 4.0 02:28:04 28° NW 02:29:39 31° NNW 02:36:00 10° NNE visible
06 Apr 4.9 04:17:51 10° NW 04:22:52 20° N 04:28:16 10° NE visible
06 Apr 4.1 23:53:40 26° NE 23:53:40 26° NE 23:56:40 10° NE visible
